Location: Limerick
(52.6650°N, 8.6230°W)
Time: 19:20:30
(UTC+01:00)

ISS - Pass Details

Date: 23 May 2017
Orbit: 402 x 408 km, 51.6° (Epoch: 29 May)

Event Time Altitude Azimuth Distance (km) Brightness Sun altitude
Rises 23:17:03 0° 216° (SW) 2,325 -0.2 -11.0°
Reaches altitude 10° 23:19:25 10° 200° (SSW) 1,467 -1.4 -11.2°
Maximum altitude 23:22:01 22° 148° (SSE) 952 -2.6 -11.4°
Drops below altitude 10° 23:24:38 10° 95° (E) 1,470 -1.3 -11.6°
Sets 23:27:00 0° 80° (E) 2,332 -0.2 -11.8°
